Regional Weather Roundup
Issued by NWS Kansas City/Pleasant Hill, MO

Home | Current Version | Previous Version | Text Only | Print | Product List | Glossary On
Versions: 1 2 3 4 5 6 7 8 9 10 11 12 13 14 15 16 17 18 19 20 21 22 23 24 25 26 27 28 29 30 31 32 33 34 35 36 37 38 39 40 41 42 43 44 45 46 47 48 49 50
000
ASUS43 KEAX 211511
RWREAX

WEATHER ROUNDUP FOR EASTERN KANSAS AND NORTHWEST MISSOURI
NATIONAL WEATHER SERVICE KANSAS CITY/PLEASANT HILL MO
1000 AM CDT TUE APR 21 2015

KSZ040-057-103>105-MOZ028-029-037-043-211600-
...KANSAS CITY METROPOLITAN AREA...

CITY           SKY/WX    TMP DP  RH WIND       PRES   REMARKS
K.C. INTL      PTSUNNY   56  33  42 NW7       29.87S
K.C. DOWNTOWN  PTSUNNY   58  35  42 W8        29.87S
LEES SUMMIT    MOSUNNY   59  32  36 W10       29.87S
OLATHE - IXD   SUNNY     56  38  50 SW7       29.89S
OLATHE - OJC   MOSUNNY   58  34  40 VRB6      29.88S
LAWRENCE       MOSUNNY   57  35  43 CALM      29.88F

$$

MOZ001>008-011>017-020>025-030>033-038>040-044>046-053-054-211600-
...NORTHERN AND CENTRAL MISSOURI...

CITY           SKY/WX    TMP DP  RH WIND       PRES   REMARKS
ST. JOSEPH     MOSUNNY   57  28  33 NW10      29.86S
MOSBY          MOSUNNY   55  28  35 NW8       29.86S
WARRENSBURG    SUNNY     59  32  36 W8        29.87S
WHITEMAN AFB   MOSUNNY   58  30  34 W10       29.86S
CLINTON        MOSUNNY   55  43  62 SW8       29.91S
SEDALIA        MOSUNNY   60  35  39 W8G17     29.88S
WARSAW         NOT AVBL
MARSHALL       MOSUNNY   61  36  39 W14       29.87R
CHILLICOTHE      N/A     57  30  35 VRB6      29.84F
MOBERLY        SUNNY     57  23  26 W15       29.84F
KIRKSVILLE     SUNNY     54  24  31 W16G25    29.81S

$$

MOZ041-047>049-056>058-063>065-088>090-097-211600-
...EASTERN AND SOUTHERN MISSOURI...

CITY           SKY/WX    TMP DP  RH WIND       PRES   REMARKS
ST. LOUIS INTL PTSUNNY   60  31  33 W17G29    29.85S
SPIRIT OF STL  PTSUNNY   56  34  43 W12       29.85S
COLUMBIA       MOSUNNY   58  32  37 W13G21    29.85F
JEFFERSON CITY MOSUNNY   58  32  37 W10       29.87F
MEXICO         MOSUNNY   57  37  47 W12       29.84F
HANNIBAL       SUNNY     57  19  23 W13       29.82S
ROLLA          MOSUNNY   56  35  45 W8        29.88S
LEBANON        SUNNY     57  37  47 W17G25    29.93S
OSAGE BEACH    SUNNY     57  36  44 W8        29.90S
SPRINGFIELD    SUNNY     61  38  42 SW16G25   29.92S
BRANSON        MOSUNNY   57  36  44 SW17G23   29.97S
NEVADA         SUNNY     59  43  55 SW12      29.94S
JOPLIN         SUNNY     60  41  49 SW18G28   29.94S
WEST PLAINS    SUNNY     57  37  47 W10G20    29.95S

$$

IAZ060-094-KSZ022-034>040-054-083-096-NEZ052-066-093-211600-
...KANSAS...SOUTHEAST NEBRASKA AND IOWA...

CITY           SKY/WX    TMP DP  RH WIND       PRES   REMARKS
TOPEKA         MOSUNNY   55  35  47 SW6       29.89F
MANHATTAN      SUNNY     54  38  54 SW3       29.89S
EMPORIA        SUNNY     58  40  51 SW8       29.89F
CHANUTE        SUNNY     61  45  55 W12       29.92R
WICHITA        SUNNY     63  43  48 SW16G26   29.90F
OMAHA          SUNNY     54  24  31 W18G24    29.80F
LINCOLN        SUNNY     55  25  31 NW14      29.85F
FALLS CITY     SUNNY     55  32  41 W12       29.85S
LAMONI         SUNNY     54  24  31 W18       29.79F
DES MOINES     MOSUNNY   52  18  26 NW22G28   29.76S

$$




USA.gov is the U.S. government's official web portal to all federal, state and local government web resources and services.